User: anonymous   Login
Location: Bavegemberg
(50.9500°N, 3.8833°E)
Time: 13:13:47
(UTC+00:00)
Language:

Cosmos 1782 Rocket - Orbit

View from above orbital plane
View from above orbital plane
View from above satellite
View from above satellite

Ground track
Ground track

The orbit data is extracted from the following two-line orbital elements,

1 16987U 86074B   24202.93498466  .00001053  00000-0  12258-3 0  9995
2 16987  82.5142  43.1036 0017998   7.2912 114.5826 14.84253921 21400
Epoch (UTC): 20 July 2024 22:26:22
Eccentricity: 0.0017998
inclination: 82.5142°
perigee height: 603 km
apogee height: 628 km
right ascension of ascending node: 43.1036°
argument of perigee: 7.2912°
revolutions per day: 14.84253921
mean anomaly at epoch: 114.5826°
orbit number at epoch: 2140

The dashed part of the orbit path shows where the satellite is in the earth's shadow,  

DLR